• In Deutschland
  • Länderverzeichnis
  • Für 7 Tage
  • Wassertemperatur
  • Satellitenkarten
  • Wetterkarte
  • Widgets
  • user-avatar
    Anmelden

    Stündliche Wetter Prutz

    Heute, 28 Mai, Montag

    Zeit Temperatur Niederschläge Wind Luftdruck Luftfeuchtigkeit
    00:00 +10°C° 0 mm 2 m/S 636 mmHg 85%
    01:00 +9°C° 0 mm 2 m/S 636 mmHg 85%
    02:00 +9°C° 0 mm 2 m/S 635 mmHg 85%
    03:00 +9°C° 0 mm 2 m/S 635 mmHg 84%
    04:00 +9°C° 0 mm 2 m/S 635 mmHg 84%
    05:00 +10°C° 0 mm 2 m/S 636 mmHg 79%
    06:00 +13°C° 0 mm 2 m/S 636 mmHg 74%
    07:00 +14°C° 0 mm 2 m/S 637 mmHg 68%
    08:00 +16°C° 0 mm 2 m/S 637 mmHg 62%
    09:00 +18°C° 0 mm 2 m/S 638 mmHg 55%
    10:00 +20°C° 0 mm 2 m/S 638 mmHg 48%
    11:00 +20°C° 0,3 mm 2 m/S 638 mmHg 48%
    12:00 +20°C° 0,3 mm 2 m/S 638 mmHg 48%
    13:00 +20°C° 0,3 mm 2 m/S 638 mmHg 48%
    14:00 +20°C° 0,5 mm 2 m/S 638 mmHg 51%
    15:00 +19°C° 0,5 mm 2 m/S 637 mmHg 54%
    16:00 +19°C° 0,5 mm 2 m/S 637 mmHg 57%
    17:00 +18°C° 0,3 mm 2 m/S 636 mmHg 63%
    18:00 +17°C° 0,3 mm 2 m/S 636 mmHg 69%
    19:00 +16°C° 0,3 mm 2 m/S 636 mmHg 74%
    20:00 +15°C° 0,1 mm 2 m/S 635 mmHg 79%
    21:00 +13°C° 0,1 mm 2 m/S 635 mmHg 83%
    22:00 +12°C° 0,1 mm 2 m/S 635 mmHg 87%
    23:00 +12°C° 0 mm 2 m/S 635 mmHg 87%

    Morgen, 29 Mai, Dienstag

    Zeit Temperatur Niederschläge Wind Luftdruck Luftfeuchtigkeit
    00:00 +10°C° 0 mm 2 m/S 635 mmHg 87%
    01:00 +10°C° 0 mm 2 m/S 635 mmHg 88%
    02:00 +10°C° 0 mm 2 m/S 635 mmHg 86%
    03:00 +10°C° 0 mm 2 m/S 635 mmHg 85%
    04:00 +9°C° 0 mm 2 m/S 634 mmHg 84%
    05:00 +12°C° 0 mm 2 m/S 635 mmHg 79%
    06:00 +13°C° 0 mm 2 m/S 635 mmHg 75%
    07:00 +14°C° 0 mm 1 m/S 636 mmHg 70%
    08:00 +15°C° 0,1 mm 1 m/S 636 mmHg 65%
    09:00 +18°C° 0,1 mm 1 m/S 636 mmHg 59%
    10:00 +19°C° 0,1 mm 1 m/S 637 mmHg 54%
    11:00 +20°C° 0,4 mm 1 m/S 637 mmHg 54%
    12:00 +19°C° 0,4 mm 2 m/S 636 mmHg 55%
    13:00 +20°C° 0,4 mm 2 m/S 636 mmHg 55%
    14:00 +19°C° 1,6 mm 2 m/S 636 mmHg 60%
    15:00 +18°C° 1,6 mm 2 m/S 635 mmHg 65%
    16:00 +19°C° 1,6 mm 1 m/S 635 mmHg 70%
    17:00 +18°C° 1,4 mm 1 m/S 634 mmHg 76%
    18:00 +16°C° 1,4 mm 1 m/S 634 mmHg 82%
    19:00 +15°C° 1,4 mm 1 m/S 634 mmHg 88%
    20:00 +14°C° 0,6 mm 1 m/S 634 mmHg 89%
    21:00 +13°C° 0,6 mm 1 m/S 634 mmHg 90%
    22:00 +12°C° 0,6 mm 1 m/S 634 mmHg 92%
    23:00 +12°C° 0,1 mm 1 m/S 634 mmHg 92%

    übermorgen, 30 Mai, Mittwoch

    Zeit Temperatur Niederschläge Wind Luftdruck Luftfeuchtigkeit
    00:00 +11°C° 0,1 mm 1 m/S 633 mmHg 92%
    01:00 +10°C° 0,1 mm 2 m/S 633 mmHg 92%
    02:00 +9°C° 0 mm 2 m/S 633 mmHg 92%
    03:00 +9°C° 0 mm 2 m/S 633 mmHg 91%
    04:00 +10°C° 0 mm 1 m/S 632 mmHg 91%
    05:00 +11°C° 0 mm 1 m/S 633 mmHg 87%
    06:00 +13°C° 0 mm 1 m/S 633 mmHg 82%
    07:00 +14°C° 0 mm 1 m/S 634 mmHg 78%
    08:00 +16°C° 0,4 mm 1 m/S 634 mmHg 71%
    09:00 +18°C° 0,4 mm 1 m/S 635 mmHg 64%
    10:00 +20°C° 0,4 mm 1 m/S 635 mmHg 57%
    11:00 +20°C° 0,6 mm 1 m/S 635 mmHg 55%
    12:00 +21°C° 0,6 mm 1 m/S 635 mmHg 53%
    13:00 +20°C° 0,6 mm 2 m/S 635 mmHg 51%
    14:00 +20°C° 1 mm 2 m/S 635 mmHg 54%
    15:00 +21°C° 1 mm 1 m/S 635 mmHg 57%
    16:00 +20°C° 1 mm 1 m/S 634 mmHg 60%
    17:00 +19°C° 1 mm 1 m/S 634 mmHg 67%
    18:00 +18°C° 1 mm 1 m/S 634 mmHg 74%
    19:00 +16°C° 1 mm 1 m/S 633 mmHg 81%
    20:00 +15°C° 0,9 mm 1 m/S 633 mmHg 84%
    21:00 +13°C° 0,9 mm 1 m/S 633 mmHg 86%
    22:00 +12°C° 0,9 mm 1 m/S 633 mmHg 89%
    23:00 +12°C° 0,4 mm 1 m/S 633 mmHg 89%

    31 Mai, Donnerstag

    Zeit Temperatur Niederschläge Wind Luftdruck Luftfeuchtigkeit
    00:00 +11°C° 0,4 mm 1 m/S 633 mmHg 89%
    01:00 +10°C° 0,4 mm 2 m/S 632 mmHg 89%
    02:00 +9°C° 0,2 mm 2 m/S 632 mmHg 88%
    03:00 +9°C° 0,2 mm 2 m/S 632 mmHg 87%
    04:00 +10°C° 0,2 mm 1 m/S 632 mmHg 86%
    05:00 +11°C° 0,4 mm 1 m/S 632 mmHg 82%
    06:00 +13°C° 0,4 mm 1 m/S 633 mmHg 77%
    07:00 +15°C° 0,4 mm 1 m/S 634 mmHg 72%
    08:00 +16°C° 0,4 mm 1 m/S 634 mmHg 67%
    09:00 +19°C° 0,4 mm 1 m/S 635 mmHg 62%
    10:00 +20°C° 0,4 mm 1 m/S 635 mmHg 57%
    11:00 +21°C° 0,7 mm 1 m/S 635 mmHg 56%
    12:00 +21°C° 0,7 mm 1 m/S 635 mmHg 54%
    13:00 +21°C° 0,7 mm 1 m/S 635 mmHg 53%
    14:00 +20°C° 1,2 mm 2 m/S 635 mmHg 57%
    15:00 +19°C° 1,2 mm 2 m/S 634 mmHg 61%
    16:00 +19°C° 1,2 mm 2 m/S 634 mmHg 65%
    17:00 +19°C° 1,3 mm 1 m/S 634 mmHg 71%
    18:00 +18°C° 1,3 mm 1 m/S 634 mmHg 77%
    19:00 +16°C° 1,3 mm 1 m/S 633 mmHg 83%
    20:00 +14°C° 1,4 mm 1 m/S 633 mmHg 86%
    21:00 +12°C° 1,4 mm 0 m/S 633 mmHg 89%
    22:00 +11°C° 1,4 mm 0 m/S 633 mmHg 92%
    23:00 +10°C° 0,8 mm 0 m/S 633 mmHg 92%

    1 Juni, Freitag

    Zeit Temperatur Niederschläge Wind Luftdruck Luftfeuchtigkeit
    00:00 +11°C° 0,8 mm 1 m/S 632 mmHg 92%
    01:00 +11°C° 0,8 mm 1 m/S 632 mmHg 92%
    02:00 +10°C° 0,9 mm 1 m/S 632 mmHg 92%
    03:00 +10°C° 0,9 mm 1 m/S 632 mmHg 93%
    04:00 +9°C° 0,9 mm 0 m/S 632 mmHg 93%
    05:00 +11°C° 0,5 mm 1 m/S 633 mmHg 92%
    06:00 +12°C° 0,5 mm 1 m/S 633 mmHg 90%
    07:00 +13°C° 0,5 mm 1 m/S 634 mmHg 88%
    08:00 +14°C° 0,5 mm 1 m/S 634 mmHg 84%
    09:00 +15°C° 0,5 mm 1 m/S 634 mmHg 81%
    10:00 +16°C° 0,5 mm 1 m/S 635 mmHg 78%
    11:00 +16°C° 0,9 mm 2 m/S 635 mmHg 77%
    12:00 +16°C° 0,9 mm 2 m/S 635 mmHg 76%
    13:00 +17°C° 0,9 mm 2 m/S 635 mmHg 75%
    14:00 +16°C° 0,9 mm 2 m/S 635 mmHg 77%
    15:00 +16°C° 0,9 mm 2 m/S 634 mmHg 79%
    16:00 +16°C° 0,9 mm 2 m/S 634 mmHg 80%
    17:00 +15°C° 0,6 mm 2 m/S 634 mmHg 84%
    18:00 +14°C° 0,6 mm 1 m/S 634 mmHg 88%
    19:00 +14°C° 0,6 mm 1 m/S 634 mmHg 92%
    20:00 +13°C° 0,5 mm 1 m/S 634 mmHg 93%
    21:00 +13°C° 0,5 mm 1 m/S 635 mmHg 94%
    22:00 +12°C° 0,5 mm 1 m/S 635 mmHg 96%
    23:00 +12°C° 0,4 mm 1 m/S 635 mmHg 96%

    2 Juni, Samstag

    Zeit Temperatur Niederschläge Wind Luftdruck Luftfeuchtigkeit
    00:00 +12°C° 0,4 mm 1 m/S 635 mmHg 96%
    01:00 +12°C° 0,4 mm 1 m/S 635 mmHg 96%
    02:00 +12°C° 0,4 mm 1 m/S 635 mmHg 97%
    03:00 +11°C° 0,4 mm 1 m/S 635 mmHg 97%
    04:00 +11°C° 0,4 mm 1 m/S 635 mmHg 97%
    05:00 +12°C° 0,8 mm 1 m/S 635 mmHg 96%
    06:00 +12°C° 0,8 mm 1 m/S 635 mmHg 95%
    07:00 +12°C° 0,8 mm 1 m/S 636 mmHg 94%
    08:00 +13°C° 1,1 mm 1 m/S 636 mmHg 93%
    09:00 +12°C° 1,1 mm 0 m/S 636 mmHg 91%
    10:00 +12°C° 1,1 mm 0 m/S 636 mmHg 90%
    11:00 +15°C° 0,5 mm 1 m/S 636 mmHg 84%
    12:00 +16°C° 0,5 mm 1 m/S 637 mmHg 79%
    13:00 +18°C° 0,5 mm 1 m/S 637 mmHg 74%
    14:00 +18°C° 0,9 mm 1 m/S 637 mmHg 75%
    15:00 +17°C° 0,9 mm 2 m/S 637 mmHg 76%
    16:00 +17°C° 0,9 mm 2 m/S 637 mmHg 76%
    17:00 +17°C° 0,8 mm 2 m/S 637 mmHg 80%
    18:00 +16°C° 0,8 mm 2 m/S 637 mmHg 85%
    19:00 +15°C° 0,8 mm 1 m/S 637 mmHg 89%
    20:00 +14°C° 0,2 mm 1 m/S 636 mmHg 92%
    21:00 +13°C° 0,2 mm 1 m/S 636 mmHg 94%
    22:00 +10°C° 0,2 mm 0 m/S 636 mmHg 97%
    23:00 +11°C° 0 mm 1 m/S 636 mmHg 97%
    Mehr zeigen